Regional Weather Roundup
Issued by NWS Midland/Odessa, TX

Home | Current Version | Previous Version | Text Only | Print | Product List | Glossary On
Versions: 1 2 3 4 5 6 7 8 9 10 11 12 13 14 15 16 17 18 19 20 21 22 23 24 25 26 27 28 29 30 31 32 33 34 35 36 37 38 39 40 41 42 43 44 45 46 47 48 49 50
000
ASUS44 KMAF 231010
RWRMAF
MIDLAND AREA WEATHER ROUNDUP
NATIONAL WEATHER SERVICE MIDLAND TX
400 AM CST TUE JAN 23 2018

...IN SOUTHWEST TEXAS AND SOUTHEAST NEW MEXICO...

CITY           SKY/WX    TMP DP  RH WIND       PRES   REMARKS
ALPINE         CLOUDY    22   3  43 W7        30.25F WCI  14
ANDREWS        FAIR      28   5  37 NW5       30.19S WCI  23
ARTESIA        PTCLDY    25   0  33 NW7       30.20S WCI  17
BIG SPRING     CLOUDY    27   5  38 SW3       30.23R
CARLSBAD       PTCLDY    30   6  36 N3        30.19S
DRYDEN           N/A    N/A N/A N/A N3        30.20S
FORT STOCKTON  CLOUDY    34   6  31 SW13      30.20S WCI  25
GUAD PASS      PTCLDY    38   2  22 N3        30.19F
HOBBS          CLOUDY    27   1  33 NW8       30.18S WCI  18
LAMESA         CLOUDY    25   5  42 NW8       30.19S WCI  16
MARFA          CLOUDY    19   2  47 N9        30.20F WCI   8
MIDLAND AIRPK    N/A     30   8  39 W3        30.20S
MIDLAND INTL   CLOUDY    28   6  39 NW5       30.19R WCI  23
ODESSA         CLOUDY    29   7  39 W5        30.19S WCI  24
PECOS          CLOUDY    22   2  41 CALM      30.22R
PRESIDIO       FAIR      41   5  22 N8        30.19S WCI  36
SEMINOLE       CLOUDY    26   4  39 W5        30.19S WCI  20
SNYDER         PTCLDY    36   6  28 N3        30.19S
WINK           CLOUDY    22   3  44 N8        30.19S WCI  12
$$
...OTHER STATIONS IN TEXAS...

CITY           SKY/WX    TMP DP  RH WIND       PRES   REMARKS
ABILENE        CLOUDY    25  13  60 S5        30.19R WCI  19
AMARILLO       CLOUDY    25   4  40 W5        30.18R WCI  19
AUSTIN         CLOUDY    28  25  88 CALM      30.21R
BROWNSVILLE    FAIR      55  46  71 N5        30.18S
CORPUS CHRISTI MOCLDY    41  31  67 N6        30.20S WCI  37
DALLAS FTW     PTCLDY    41  19  41 NW10      30.15R WCI  35
DEL RIO        CLEAR     29  21  72 CALM      30.23R
EL PASO        PTCLDY    28   5  37 N7        30.17F WCI  21
HOUSTON INT    FAIR      40  35  83 CALM      30.18S
LUBBOCK        CLOUDY    19  -3  38 N8        30.17F WCI   9
SAN ANGELO     CLOUDY    24  10  55 W7        30.20R WCI  16
SAN ANTONIO    CLOUDY    36  23  59 NW7       30.21S WCI  30
WACO           CLEAR     32  20  61 W5        30.19R WCI  27
WICHITA FALLS  CLEAR     28  21  75 NW13      30.09R WCI  17
$$
...OTHER LOCATIONS IN NEW MEXICO...

CITY           SKY/WX    TMP DP  RH WIND       PRES   REMARKS
ALAMOGORDO     CLEAR     21   3  45 CALM      30.21R
ALBUQUERQUE    PTCLDY    24  10  55 N5        30.23S WCI  18
CANNON AFB     PTCLDY    26   3  37 W8        30.17S WCI  17
CLOVIS         PTCLDY    21   4  47 W9        30.17S WCI  11
HOLLOMAN AFB   CLEAR     17  -4  38 CALM      30.22S
ROSWELL        CLEAR     26   2  35 CALM      30.18S
RUIDOSO        CLEAR     21  -2  35 CALM      30.20S
SANTA FE       CLEAR     17  10  74 N13       30.19F WCI   4
TRUTH OR CONSE CLEAR     28   4  35 NW8       30.21S WCI  20
TUCUMCARI      PTCLDY    18  -1  43 W3        30.13S
$$




USA.gov is the U.S. government's official web portal to all federal, state and local government web resources and services.